EW9592 Weather Reports


time (UTC)temp
F
wind
direction
speed
knots
gust
knots
rain 1hr
in
rain 24hr
in
rain mn
in
humidity
%
barometer
mb
20220812001633 75 249 0.0 0.0 0.00 0.00 0.00 87 1017.4
20220812000100 76 249 0.0 0.0 0.00 0.00 0.00 84 1017.3
20220811234559 77 249 0.0 0.0 0.00 0.00 0.00 81 1017.1
20220811233108 78 249 0.0 0.0 0.00 0.00 0.00 79 1017.2
20220811231559 79 249 0.0 0.9 0.00 0.00 0.00 77 1017.1
20220811230059 80 249 0.0 0.0 0.00 0.00 0.00 76 1017.2
20220811224601 81 249 0.0 0.9 0.00 0.00 0.00 78 1017.1
20220811223057 80 248 0.0 0.0 0.00 0.00 0.00 77 1017.2
20220811221556 80 246 0.0 0.0 0.00 0.00 0.00 78 1017.2
20220811220058 80 346 0.0 0.9 0.00 0.00 0.00 76 1017.2
20220811214554 80 346 0.0 0.9 0.00 0.00 0.00 75 1017.0
20220811213054 81 344 0.0 2.6 0.00 0.00 0.00 68 1017.0
20220811211552 81 346 0.0 0.9 0.00 0.00 0.00 71 1017.1
20220811210049 81 347 0.0 0.9 0.00 0.00 0.00 73 1017.4
20220811204654 80 348 0.0 0.9 0.00 0.00 0.00 72 1017.7
20220811203134 80 282 0.0 0.9 0.00 0.00 0.00 72 1017.6
20220811201546 81 252 0.0 0.9 0.00 0.00 0.00 77 1017.7
20220811200045 80 276 0.0 0.9 0.00 0.00 0.00 73 1017.9
20220811194543 80 281 0.0 0.9 0.00 0.22 0.00 71 1018.1
20220811193041 80 252 0.0 1.7 0.00 0.22 0.00 67 1018.2
20220811191540 80 233 0.0 0.9 0.00 0.22 0.00 69 1018.4
20220811190040 80 150 0.0 0.9 0.00 0.22 0.00 72 1018.5
20220811184536 81 259 0.0 0.9 0.00 0.22 0.00 72 1018.7
20220811183034 80 245 0.0 0.9 0.00 0.22 0.00 71 1018.8
20220811181534 80 139 0.0 1.7 0.00 0.22 0.00 70 1018.8
20220811180035 79 132 0.0 2.6 0.00 0.22 0.00 73 1018.9
20220811174550 79 236 0.0 0.9 0.00 0.22 0.00 72 1019.1
20220811173027 79 76 0.0 0.9 0.00 0.22 0.00 74 1019.2
20220811171547 79 111 0.0 0.9 0.00 0.22 0.00 76 1019.4
20220811170026 79 111 0.0 0.9 0.00 0.22 0.00 73 1019.4
20220811164524 79 210 0.0 0.9 0.00 0.22 0.00 75 1019.5
20220811163022 78 183 0.0 0.9 0.00 0.22 0.00 77 1019.5
20220811161522 78 217 0.0 0.9 0.00 0.22 0.00 74 1019.7
20220811160021 78 103 0.0 1.7 0.00 0.22 0.00 76 1019.8
20220811154518 78 117 0.0 0.9 0.00 0.22 0.00 80 1019.9
20220811153015 75 315 0.0 0.9 0.00 0.22 0.00 85 1020.0
20220811151527 73 277 0.0 0.9 0.00 0.22 0.00 90 1020.0
20220811150007 72 229 0.0 0.0 0.00 0.22 0.00 93 1019.9
20220811144515 71 229 0.0 0.9 0.00 0.22 0.00 95 1019.9
20220811143012 70 170 0.0 0.0 0.00 0.22 0.00 97 1019.9
20220811141504 70 226 0.0 0.0 0.00 0.22 0.00 99 1019.8
20220811140010 69 226 0.0 0.0 0.00 0.22 0.00 99 1019.8
20220811134505 69 226 0.0 0.0 0.00 0.22 0.00 99 1019.9
20220811133001 68 226 0.0 0.0 0.00 0.22 0.00 99 1019.8
20220811131506 68 226 0.0 0.0 0.00 0.22 0.00 99 1019.7
20220811130101 67 226 0.0 0.0 0.00 0.22 0.00 99 1019.6
20220811124602 67 226 0.0 0.0 0.00 0.22 0.00 99 1019.5
20220811123104 66 226 0.0 0.0 0.00 0.22 0.00 99 1019.5
20220811121557 66 226 0.0 0.0 0.00 0.22 0.00 99 1019.5
20220811120102 66 226 0.0 0.0 0.00 0.22 0.00 99 1019.4
20220811114600 66 226 0.0 0.0 0.00 0.22 0.00 99 1019.2
20220811113134 66 226 0.0 0.0 0.00 0.22 0.00 99 1019.3
20220811111552 66 226 0.0 0.0 0.00 0.22 0.00 98 1019.2
20220811110057 66 226 0.0 0.0 0.00 0.22 0.00 98 1019.2
20220811104553 66 226 0.0 0.0 0.00 0.22 0.00 98 1019.0
20220811103049 66 226 0.0 0.0 0.00 0.22 0.00 98 1018.9
20220811101550 67 226 0.0 0.0 0.00 0.22 0.00 98 1018.8
20220811100046 67 226 0.0 0.0 0.00 0.22 0.00 98 1018.8
20220811094615 67 226 0.0 0.0 0.00 0.22 0.00 98 1018.8
20220811093048 67 226 0.0 0.0 0.00 0.22 0.00 98 1018.9
20220811091557 68 226 0.0 0.0 0.00 0.22 0.00 98 1019.0
20220811090048 68 226 0.0 0.0 0.00 0.22 0.00 98 1019.0
20220811084539 68 226 0.0 0.0 0.00 0.22 0.00 98 1019.0
20220811083059 69 226 0.0 0.0 0.00 0.22 0.00 98 1019.0
20220811081548 69 226 0.0 0.0 0.00 0.22 0.00 98 1019.1
20220811080041 69 226 0.0 0.0 0.00 0.22 0.00 98 1019.1
20220811074545 69 226 0.0 0.0 0.00 0.22 0.00 98 1019.1
20220811073041 69 226 0.0 0.0 0.00 0.22 0.00 98 1019.1
20220811071541 70 226 0.0 0.0 0.00 0.22 0.00 98 1019.0
20220811070133 70 226 0.0 0.0 0.00 0.22 0.00 98 1018.9
20220811064544 70 226 0.0 0.0 0.00 0.22 0.00 98 1018.9
20220811063048 70 226 0.0 0.0 0.00 0.22 0.00 98 1018.9
20220811061536 71 226 0.0 0.0 0.00 0.22 0.00 98 1019.1
20220811060034 71 227 0.0 0.0 0.00 0.22 0.00 98 1019.1
20220811054525 72 226 0.0 0.0 0.00 0.22 0.00 98 1019.1
20220811053023 72 226 0.0 0.0 0.00 0.22 0.00 98 1018.9
20220811051534 72 226 0.0 0.0 0.00 0.22 0.00 98 1019.0
20220811050021 72 226 0.0 0.0 0.00 0.22 0.00 98 1019.0
20220811044521 72 226 0.0 0.0 0.00 0.22 0.00 98 1019.0
20220811043020 72 226 0.0 0.0 0.00 0.22 0.00 98 1018.9
20220811041518 72 226 0.0 0.0 0.00 0.22 0.00 98 1018.9
20220811040017 72 225 0.0 0.0 0.00 0.22 0.00 98 1018.9
20220811034511 73 225 0.0 0.0 0.00 0.22 0.22 98 1018.8
20220811033030 73 225 0.0 0.0 0.00 0.22 0.22 98 1018.9
20220811030058 73 226 0.0 0.0 0.00 0.22 0.22 98 1019.0
20220811024554 73 226 0.0 0.0 0.00 0.22 0.22 98 1019.2
20220811023056 74 226 0.0 0.0 0.00 0.22 0.22 98 1019.1
20220811021553 74 226 0.0 0.9 0.00 0.22 0.22 98 1019.2
20220811020050 74 150 0.0 1.7 0.00 0.22 0.22 97 1019.1
20220811014558 75 41 0.0 0.0 0.00 0.22 0.22 98 1018.7
20220811013058 75 41 0.0 0.0 0.00 0.22 0.22 98 1018.6
20220811011546 76 41 0.0 0.0 0.00 0.22 0.22 98 1018.5
20220811010043 76 41 0.0 0.0 0.00 0.22 0.22 98 1018.2
20220811004549 76 41 0.0 0.0 0.00 0.22 0.22 98 1018.1
20220811003049 76 41 0.0 0.0 0.00 0.22 0.22 98 1018.2